Location: Edmonton
(53.5500°N, 113.5000°W)
Time: 19:31:22
(UTC-06:00)

Daily predictions for brighter satellites

Satellite Brightness Start Highest point End
(mag) Time Altitude Azimuth Time Altitude Azimuth Time Altitude Azimuth
Cosmos 1602 Rocket 3.8 21:15:13 10° N 21:19:39 55° ENE 21:24:01 10° SSE
Cosmos 2227 Rocket 2.3 21:15:10 10° NNW 21:20:52 83° WSW 21:26:32 10° SSE
Cosmos 1455 Rocket 3.2 21:18:39 10° S 21:22:53 55° E 21:27:09 10° NNE
Cosmos 2263 Rocket 4.1 21:21:01 10° NNW 21:24:55 19° NNE 21:28:49 10° ENE
Cosmos 1898 Rocket 3.9 21:19:44 10° NNW 21:24:59 53° ENE 21:30:10 10° SE
Okean 2 4.0 21:21:23 10° NNW 21:25:33 62° W 21:29:40 10° S
Resurs 01 Rocket 4.2 21:24:13 10° SW 21:27:42 22° W 21:31:14 10° NW
USA 186 3.0 21:25:51 10° S 21:28:48 40° W 21:31:36 10° NNW
Meteor 1-5 Rocket 4.1 21:24:29 10° S 21:29:47 70° E 21:35:16 10° NNE
Meteor 2-14 Rocket 4.5 21:25:06 10° S 21:31:16 82° E 21:37:27 10° NNE
Cosmos 2082 3.9 21:27:07 10° NW 21:32:45 74° WSW 21:38:20 10° SSE
ERS-1 Rocket 3.0 21:29:54 10° SSE 21:34:56 89° ENE 21:40:01 10° NNW
Cosmos 1943 Rocket 3.5 21:30:34 10° WSW 21:36:00 46° NW 21:41:28 10° NNE
Cosmos 2297 Rocket 2.3 21:31:14 10° NNW 21:36:55 84° WSW 21:42:36 10° SSE
Cosmos 1461 3.6 21:34:15 10° NW 21:38:15 47° SW 21:42:05 10° SSE
Terra 3.7 21:36:26 10° E 21:39:29 17° NE 21:42:32 10° NNE
Cosmos 1340 3.9 21:36:52 10° N 21:40:06 26° ENE 21:42:58 12° ESE
SJ-11-01 4.5 21:37:08 10° S 21:41:50 77° WSW 21:46:33 10° NNW
Cosmos 1975 3.2 21:38:14 10° SSE 21:42:08 44° E 21:46:04 10° NNE
Cosmos 1934 Rocket 4.1 21:36:54 10° S 21:43:03 87° W 21:49:21 10° N
NOSS 2-1 (D) 3.6 21:39:57 10° SSW 21:43:52 52° SE 21:48:33 10° NE
Cosmos 1515 3.7 21:40:14 10° N 21:44:06 67° ENE 21:47:56 10° SSE
NOSS 2-1 (C) 3.7 21:40:59 10° SSW 21:44:53 52° SE 21:49:35 10° NE
Lacrosse 5 rocket 2.1 21:46:30 10° WNW 21:50:01 37° SW 21:53:07 12° SSE
EO 1 Delta rocket 4.4 21:51:33 10° N 21:56:08 63° WNW 22:00:51 10° SSW
Cosmos 1544 Rocket 4.3 21:52:07 10° SSW 21:56:26 57° WNW 22:00:49 10° N
Cosmos 220 Rocket 4.2 21:52:51 10° NNW 21:57:05 67° WSW 22:01:16 10° SSE
Cosmos 1743 3.9 21:54:40 14° SE 21:57:07 25° E 22:00:21 10° NNE
Cosmos 2084 3.4 21:53:42 10° NW 21:57:40 74° SW 22:01:02 15° SE
NOSS 2-1 (E) 3.5 21:56:47 10° SSW 22:00:49 65° SE 22:05:48 10° NE
Cosmos 1066 Rocket 4.2 21:59:06 10° NNW 22:04:43 86° ENE 22:10:26 10° SSE
Cosmos 1842 4.4 22:01:45 10° N 22:05:13 28° ENE 22:07:21 18° ESE
Meteor 1-12 Rocket 4.3 21:59:57 10° S 22:05:41 78° E 22:11:34 10° NNE
ATLAS CENTAUR R/B 2.6 22:01:03 10° WSW 22:05:59 56° NW 22:10:44 10° NE
Cosmos 2208 Rocket 4.0 22:02:36 10° SSW 22:07:56 83° ESE 22:13:24 10° NNE
Cosmos 2298 Rocket 4.2 22:03:41 10° NNW 22:09:00 75° WSW 22:14:01 12° SSE
Cosmos 1939 Rocket 3.7 22:06:39 10° S 22:10:41 51° W 22:14:47 10° NNW
YAOGAN 6 2.6 22:09:19 15° SSE 22:12:14 74° ENE 22:15:58 10° N
Lacrosse 5 2.1 22:13:46 10° WNW 22:18:47 63° SSW 22:22:12 20° SE
USA 215 3.4 22:13:51 16° SE 22:19:10 69° SSW 22:25:43 10° WNW
Cosmos 2278 3.6 22:15:39 10° SSW 22:21:20 79° ESE 22:27:04 10° NNE
Cosmos 2173 Rocket 4.1 22:15:52 10° S 22:22:06 60° E 22:28:19 10° NNE
BREEZE-M DEB (TANK) 3.2 22:20:21 10° WSW 22:22:19 23° S 22:23:22 20° SSE
MetOp-A 4.2 22:18:08 11° SSE 22:23:17 80° WSW 22:28:41 10° NNW
Cosmos 1697 Rocket 3.2 22:18:48 10° S 22:23:57 38° ESE 22:29:07 10° NE
Cosmos 2061 Rocket 4.1 22:18:01 10° S 22:24:13 62° E 22:30:22 10° NNE
Cosmos 1605 Rocket 4.5 22:18:07 10° SSW 22:24:24 65° WNW 22:30:40 10° N
H-2A R/B 2.6 22:21:51 20° SE 22:24:55 41° ENE 22:29:33 10° N
Tsikada Rocket 4.4 22:18:53 10° N 22:25:09 51° ENE 22:29:33 20° SE
SL-16 R/B 4.2 22:26:09 10° E 22:26:09 10° E 22:26:48 10° E
Cosmos 1726 Rocket 4.3 22:24:11 22° SE 22:26:15 34° E 22:30:14 10° NNE
SPOT 5 3.2 22:22:12 10° S 22:27:16 67° WSW 22:32:06 10° NNW
Cosmos 1570 Rocket 4.4 22:22:27 10° SW 22:27:44 69° WNW 22:33:01 10° NNE
Cosmos 2100 Rocket 4.0 22:23:04 10° S 22:29:18 72° E 22:35:32 10° NNE
NOAA 11 4.2 22:26:05 17° SSE 22:30:22 78° ENE 22:35:52 10° NNW
Cosmos 1825 Rocket 3.6 22:27:43 10° NNW 22:32:12 86° W 22:35:27 18° S
Cosmos 2369 3.7 22:28:12 10° SSW 22:33:53 86° ESE 22:39:38 10° NNE
RESURS DK-1 2.5 22:29:44 10° NW 22:33:53 68° WSW 22:36:17 24° SSE
Envisat 4.1 22:29:54 10° SSW 22:34:42 42° W 22:39:32 10° NNW
Cosmos 1937 Rocket 3.7 22:29:28 10° NNW 22:34:42 69° WSW 22:38:38 18° SSE
Cosmos 967 Rocket 4.5 22:29:05 10° NW 22:35:30 88° SW 22:39:44 22° SE
Cosmos 1953 Rocket 3.5 22:35:24 10° N 22:39:51 86° ENE 22:42:38 23° SSE
Meteor 1-21 4.3 22:36:06 10° NNW 22:41:52 85° WSW 22:46:16 18° S
NOSS 7 (D) 4.3 22:38:55 10° SW 22:42:15 73° SE 22:45:53 10° NE
SPOT 1/Viking Rocket 3.6 22:39:37 18° SSE 22:43:34 80° WSW 22:48:49 10° NNW
SL-19 R/B 4.3 22:38:40 10° NNE 22:44:16 59° ESE 22:48:37 16° S
deb Chang Zheng 4 3.8 22:40:13 10° NNE 22:44:42 76° WNW 22:49:09 10° SSW
Cosmos 1980 Rocket 2.8 22:42:25 22° SSE 22:45:11 35° ESE 22:50:18 10° NE
GP-B 4.4 22:42:40 10° NNE 22:46:22 25° ENE 22:47:21 23° E
CZ-4C R/B 3.8 22:46:06 29° SE 22:48:11 58° ENE 22:52:33 10° N
H-2A R/B 3.6 22:46:55 10° SSW 22:50:33 31° W 22:54:16 10° NNW
ARGOS 3.3 22:49:43 20° S 22:53:34 74° WSW 22:58:59 10° NNW
Cosmos 990 Rocket 4.3 22:48:29 10° NNW 22:53:43 65° WSW 22:56:56 23° S
Cosmos 1666 3.0 22:52:58 38° SE 22:53:44 44° E 22:57:22 10° NNE
ASTEX 1 3.5 22:49:57 10° N 22:55:00 82° W 22:59:13 15° SSW
CZ-4 R/B 4.1 22:50:45 10° NNE 22:55:17 46° E 22:57:07 31° SSE
CZ-4 SHROUD 4.5 22:55:49 21° SSW 22:57:19 35° W 23:00:13 10° NNW
Cosmos 1758 Rocket 3.7 22:54:54 10° NNW 22:59:18 73° W 23:01:37 27° S
Landsat 7 3.8 22:58:48 30° SSE 23:01:11 86° ENE 23:05:59 10° NNW
CZ-4B R/B 3.3 22:57:39 10° NNE 23:02:23 64° ESE 23:04:55 27° S
Cosmos 2227 Rocket 4.5 23:00:30 10° WNW 23:04:05 17° W 23:07:41 10° SW
Cosmos 1500 4.4 23:00:51 10° SW 23:04:25 40° WNW 23:08:01 10° N
Cosmos 1725 Rocket 4.0 23:01:43 24° SSE 23:05:32 63° E 23:11:43 10° NNE
DELTA 2 DEB (DPAF) 4.1 23:07:38 35° SSE 23:09:30 90° W 23:14:01 10° NNW
SL-24 R/B - RUBIN 2 4.4 23:03:53 10° SSW 23:09:56 68° SE 23:16:32 10° NE
Cosmos 2263 Rocket 2.6 23:04:43 10° NNW 23:10:11 52° NE 23:12:49 29° ESE
Cosmos 405 Rocket 2.9 23:06:44 10° N 23:10:31 52° ENE 23:11:08 46° ESE
Cosmos 1459 Rocket 4.3 23:06:40 10° SSW 23:12:40 66° WNW 23:18:47 10° N
Cosmos 1125 Rocket 3.4 23:08:09 10° NNW 23:13:24 87° ENE 23:15:34 36° SSE
BREEZE-M DEB (TANK) 4.3 22:53:25 10° WNW 23:14:32 58° SSW 23:17:39 31° SE
Cosmos 2322 Rocket 3.2 23:15:26 26° ESE 23:15:26 26° ESE 23:20:00 10° NE
Cosmos 1340 4.0 23:12:27 10° NNW 23:15:56 34° W 23:17:52 21° SW
Terra 1.7 23:14:41 37° SSE 23:16:35 85° ENE 23:21:23 10° NNW
Cosmos 2228 3.0 23:17:03 46° SE 23:17:57 57° E 23:22:09 10° NNE
Cosmos 2297 Rocket 4.4 23:16:29 10° WNW 23:20:10 18° W 23:23:49 10° SW
DMSP B5D2-2 4.3 23:15:41 10° NNE 23:20:49 49° E 23:22:19 38° SE
SL-08 RB Rocket 4.5 23:19:17 24° SSW 23:21:50 48° W 23:26:21 10° NNW
Cosmos 2058 Rocket 3.0 23:21:19 35° S 23:23:14 87° E 23:27:47 10° NNE
Meteor 2-9 Rocket 4.0 23:20:53 29° S 23:23:46 76° E 23:29:12 10° NNE
Genesis I 4.3 23:22:15 10° NW 23:26:02 39° NNE 23:27:20 30° ENE
Spot 4 3.8 23:25:51 43° SSE 23:27:26 81° ENE 23:32:15 10° NNW
Cosmos 1763 Rocket 3.3 23:25:15 33° S 23:27:29 68° ESE 23:32:32 10° NNE
Cosmos 1656 3.9 23:23:06 10° SW 23:28:42 69° NW 23:34:15 10° NNE
IGS 5A 3.4 23:28:21 50° S 23:29:24 81° WSW 23:33:35 10° NNW
Cosmos 1743 4.1 23:29:47 14° SW 23:32:50 37° WNW 23:36:31 10° N
Cosmos 2233 Rocket 4.0 23:33:05 35° SSE 23:35:42 66° E 23:41:54 10° NNE
Cosmos 468 Rocket 4.4 23:31:41 10° SW 23:36:45 60° WNW 23:41:52 10° NNE
Cosmos 1606 Rocket 4.5 23:35:54 18° SW 23:38:54 47° WNW 23:43:13 10° N
Cosmos 1814 Rocket 4.4 23:37:30 10° SW 23:42:48 63° WNW 23:48:06 10° NNE
ATLAS CENTAUR R/B 4.1 23:41:57 10° WNW 23:45:59 25° NNW 23:49:51 10° NE
Meteor 2-17 Rocket 4.3 23:43:47 37° S 23:46:22 78° E 23:52:26 10° NNE
Cosmos 841 Rocket 3.4 23:44:07 34° SSW 23:46:28 83° ESE 23:51:43 10° NNE
Cosmos 2278 Rocket 4.1 23:44:13 10° NNW 23:48:42 23° NNE 23:53:10 10° E
CARTOSAT-1 4.2 23:47:46 37° SW 23:48:57 48° W 23:53:10 10° NNW
